Location: Ladrillo (historical)
(32.8195°N, 117.2231°W)
Time: 11:39:36
(UTC+00:00)

Vanguard 3 - Pass Details

Date: 27 February 2021
Orbit: 508 x 3262 km, 33.3° (Epoch: 19 April)

Event Time Altitude Azimuth Distance (km) Brightness Sun altitude
Rises 03:19:41 0° 273° (W) 6,279 13.3 -20.8°
Reaches altitude 10° 03:24:30 10° 274° (W) 4,854 12.3 -21.9°
Maximum altitude 03:37:04 88° 6° (N) 1,424 8.2 -24.5°
Enters shadow 03:39:42 47° 94° (E) 1,585 8.1 -25.0°
Drops below altitude 10° 03:43:47 10° 96° (E) 2,731 - -25.9°
Sets 03:45:48 0° 96° (E) 3,445 - -26.3°
